Location: Arleux
(50.3632°N, 2.8721°E)
Time: 19:38:15
(UTC+00:00)

Cosmos 2263 Rocket - Pass Details

Date: 15 December 2019
Orbit: 824 x 848 km, 71.0° (Epoch: 22 January)

Event Time Altitude Azimuth Distance (km) Brightness Sun altitude
Exits shadow 03:42:23 32° 69° (ENE) 1,395 3.7 -36.8°
Drops below altitude 10° 03:45:48 10° 41° (NE) 2,434 5.1 -36.3°
Sets 03:48:22 0° 34° (NE) 3,372 5.8 -35.9°
